sat.trackr.live / text

‹ back to catalog

KUIPER-00047

NORAD 64507 · 2025-134H

PAYLOAD ACTIVE UNKNOWN

§ Identity

Operator
Country
US
Launch date
2025-06-23
Launch site
AFETR
Launch vehicle
Mass (kg)
RCS (m²)

External: N2YO · Heavens-Above · Gunter

§ Orbital elements

Epoch: 2026-05-24T23:48:02.005632Z

Period
97.30 min
Inclination
51.8985°
Eccentricity
0.0000223
Mean motion
14.79965432 rev/d
Perigee alt
629.3 km
Apogee alt
629.6 km
Semi-major
7,007.6 km
B*
3.8570e-4
RAAN
238.1519°
Arg perigee
57.0777°
Mean anomaly
303.0207°
Rev number
5,161

§ Raw data

KUIPER-000471 64507U 25134H   26144.99168988  .00002723  00000+0  38570-3 0  99912 64507  51.8985 238.1519 0000223  57.0777 303.0207 14.79965432 51617

JSON: /api/v1/satellites/64507 · /tle

For live sub-satellite position, see the globe view (requires WebGL).

§ Visibility from observer

Set your observer location to see the next 7 days of passes ≥ 10°. The values pass through the URL so the page stays shareable.

No JS? Fill the form by hand. The geolocation button needs JavaScript.